Regional Weather Roundup
Issued by NWS Wakefield, VA

Home | Current Version | Previous Version | Text Only | Print | Product List | Glossary Off
Versions: 1 2 3 4 5 6 7 8 9 10 11 12 13 14 15 16 17 18 19 20 21 22 23 24 25 26 27 28 29 30 31 32 33 34 35 36 37 38 39 40 41 42 43 44 45 46 47 48 49 50

216
ASUS41 KAKQ 180816
RWRAKQ

REGIONAL WEATHER ROUNDUP
NATIONAL WEATHER SERVICE WAKEFIELD VA
300 AM EST SUN FEB 18 2018

Note: "fair" indicates few or no clouds below 12,000 feet with no
significant weather and/or obstructions to visibility. * = Denotes
station may not report precipitation (e.g., rain,snow,etc.),
thunder or fog.

VAZ042-051-052>054-056-180900-
NORTHERN VIRGINIA

CITY           SKY/WX    TMP DP  RH WIND       PRES   REMARKS
WASH NATIONAL  CLOUDY    36  33  89 W9        30.09S
DULLES         MOCLDY    32  32 100 S8        30.07R
FORT BELVOIR   CLOUDY    36  33  90 NW6       30.10R
QUANTICO       CLOUDY    37  35  92 NW8       30.11R
FREDERICKSBRG* CLOUDY    37  37 100 W5        30.08R
STAFFORD*      CLOUDY    36  36 100 W6        30.13R
WARRENTON      CLOUDY    35  32  90 CALM      30.09R
CULPEPER*      CLOUDY    34  32  93 CALM      30.09R
MANASSAS*      CLOUDY    34  32  92 CALM      30.10R
LEESBURG*      FAIR      32  32 100 W3        30.08R FOG
WINCHESTER     FAIR      30  28  93 CALM      30.07R FOG
FRONT ROYAL*   CLOUDY    30  30 100 CALM      30.05R
LURAY*         FAIR      32  32 100 CALM      30.05R
$$

VAZ048-049-060>072-079>083-180900-
CENTRAL AND SOUTH CENTRAL VIRGINIA

CITY           SKY/WX    TMP DP  RH WIND       PRES   REMARKS
RICHMOND       CLOUDY    38  37  97 SW6       30.07S
CHESTERFIELD*  FAIR      38  36  92 CALM      30.08S
PETERSBURG*    FAIR      37  36  93 SW5       30.09F
HANOVER        FAIR      37  36  96 SW5       30.08R
TAPPAHANNOCK*  FAIR      39  38  97 SW6       30.07S
QUINTON*       FAIR      37  37 100 CALM      30.08R
CHARLOTTSVILLE LGT RAIN  34  32  92 S6        30.05R
GORDONSVILLE*  CLOUDY    34  34 100 SW6       30.07R
ORANGE*        CLOUDY    34  34 100 CALM      30.08R
LOUISA*        CLOUDY    35  34  97 SW7       30.11R
BUMPASS*       CLOUDY    35  34  95 SW6       30.07R
FARMVILLE*     FAIR     N/A N/A N/A SW3       30.08R
CREWE*         FAIR      37  37 100 SW3       30.07S
FORT PICKETT*  CLOUDY    37  37 100 SW5       30.08S
CHASE CITY*    CLOUDY    37  37 100 SW3       30.09S
CLARKSVILLE*   CLOUDY    36  36 100 CALM      30.09F
SOUTH HILL*    CLOUDY    37  37 100 CALM      30.15R
LAWRENCEVILLE* CLOUDY    38  37  98 CALM      30.09S
EMPORIA*       FAIR      37  37 100 CALM      30.12R
$$

VAZ088>098-180900-
SOUTHEAST VIRGINIA

CITY           SKY/WX    TMP DP  RH WIND       PRES   REMARKS
NORFOLK        FAIR      41  39  93 W5        30.09R
VIRGINIA BEACH CLOUDY    40  37  89 W6        30.08R
NORFOLK NAVAL  CLOUDY    42  38  85 W7        30.10R
WEST POINT*    FAIR      38  37  95 W5        30.10R
SALUDA*        CLOUDY    37  37 100 CALM      30.08R
NEWPORT NEWS   MOCLDY    40  37  89 W8        30.09R
LANGLEY AFB    MOCLDY    40  39  99 W8        30.09R
FORT EUSTIS    CLOUDY    40  37  92 W5        30.07R
WILLIAMSBURG*  MOCLDY    41  39  93 CALM      30.09S
HR EXEC AP*    PTSUNNY   39  39 100 CALM      30.10R
FRANKLIN*      CLOUDY    40  39  97 W5        30.12R
US460-WAKEFLD  CLOUDY    40  39  97 SW5       30.09R
$$

VAZ020-022-025-037-045-180900-
WEST CENTRAL AND SOUTHWEST VIRGINIA

CITY           SKY/WX    TMP DP  RH WIND       PRES   REMARKS
STAUNTON*      FAIR      32  32  99 CALM      30.06R
WAYNESBORO*    FAIR      38  36  89 SW5       30.03R
HOT SPRINGS VA CLOUDY    33  33 100 W31G39    30.00R WCI  19
LYNCHBURG      CLOUDY    34  33  96 SW5       30.07R FOG
DANVILLE       CLOUDY    38  38 100 SW7       30.11S
SOUTH BOSTON*  CLOUDY    38  37  96 SW5       30.10S
MARTINSVILLE   FAIR      36  36  98 CALM      30.13R
ROANOKE        CLOUDY    49  37  63 W14G21    30.09R
BLACKSBURG     CLOUDY    44  37  74 W22G29    30.13R
DUBLIN*        CLOUDY    46  38  72 W12G17    30.13R
MARION*        MOCLDY    44  36  72 W25G37    30.12R
HILLSVILLE*    CLOUDY    44  38  78 NW17G35   30.07R
RICHLANDS*     PTSUNNY   39  36  88 NW9       30.18R
WISE*          MOCLDY    39  39 100 W12G17    30.21R
ABINGDON*      CLOUDY    46  44  91 NW9       30.19R
$$

MDZ021>025-VAZ099-100-180900-
SOUTHERN MARYLAND AND THE DELMARVA PENINSULA

CITY           SKY/WX    TMP DP  RH WIND       PRES   REMARKS
PATUXENT RIVER CLOUDY    38  37  97 W9        30.07R
BAY BRIDGE APT CLOUDY    36  34  93 W7        30.09R
LEONARDTOWN    CLOUDY    36  36 100 W6        30.08R
DOVER          FOG       34  33  99 W8        30.04S VSB 7/8
GEORGETOWN     CLOUDY    37  32  82 W8        30.06R
EASTON         CLOUDY    37  35  93 NW6       30.11R
CAMBRIDGE      CLOUDY    37  36  93 W6G13     30.08R
SALISBURY      CLOUDY    37  37 100 NW8       30.07R
OCEAN CITY     CLOUDY    37  37 100 NW7       30.05R
WALLOPS ISLAND MOCLDY    39  38  96 W7        30.06R
ACCOMACK*      MOCLDY    38  38  97 W7        30.07R
$$

NCZ012>017-030>032-180900-
NORTH CENTRAL AND EASTERN NORTH CAROLINA

CITY           SKY/WX    TMP DP  RH WIND       PRES   REMARKS
ROANOKE RAPIDS PTSUNNY   41  41 100 CALM      30.11R
RALEIGH        CLOUDY    41  41 100 CALM      30.11F
ELIZABETH CITY MOCLDY    44  44 100 W5        30.10R
AHOSKIE*       CLOUDY    41  41 100 CALM      30.11R
EDENTON*       FAIR      47  46  94 NW3       30.11R
CURRITUCK*     CLOUDY    41  40  97 W7        30.10R
KILL DEVIL HLS CLOUDY   N/A N/A N/A W7        30.07S
MANTEO         CLOUDY    44  44  98 NW5       30.09F
CAPE HATTERAS  CLOUDY    50  50 100 N8        30.09R FOG
TARBORO*       NOT AVBL
GOLDSBORO      CLOUDY    46  44  96 N3        30.10R
WASHINGTON     DRIZZLE   45  45  98 CALM      30.12S
GREENVILLE     CLOUDY    45  45 100 CALM      30.13R
NEW BERN       CLOUDY    48  48 100 N7        30.12R FOG
WILMINGTON     MOCLDY    59  58  96 NW7       30.08R
$$

VAZ048-180900-
ELSEWHERE

CITY           SKY/WX    TMP DP  RH WIND       PRES   REMARKS
HARRISBURG PA  CLOUDY    33  30  88 NW12      30.05R WCI  24
BALTIMORE      MOCLDY    34  34 100 SW7       30.06R
ANNAPOLIS      CLOUDY    37  36  96 W3        30.07R
ANDREWS AFB    CLOUDY    35  34  96 W7        30.08R
PHILADELPHIA   CLOUDY    35  32  88 W12       30.03R
HENDERSON NC   FAIR      36  35  97 CALM      30.09S
GREENSBORO     FOG       39  39 100 NW5       30.10R VSB 1
ROCKY MOUNT    CLOUDY    44  42  93 SW5       30.12R
$$

VAZ100-180900-
MARINE

STATION/POSITION TIME  TEMP    WIND        PRES    WAVE   SWELL
                       AIR SEA DIR/SP/G            HT/PER HT/PER
                 (UTC) (F)     (DEG/KT/KT) (MB)    (FT/S) (FT/S)
BRANDYWINE LGT   0742   35     300/ 16/ 19 1017.6R
CAPE MAY NJ      0742   35 40  310/ 14/ 19 1017.0R
LEWES DE         0742   36 41  300/ 12/ 13 1017.3R
15NM E FENWICK I 0650   39 42  280/ 10/ 14 1016.1    3/ 5   2/ 5
OCEAN-CITY-INLET 0742   37 40  300/  6/  8 1017.7R
WACHAPREAGUE VA  0742   38 46  270/  4/  7 1018.0R
THOMAS POINT MD  0800   35 37  260/  7/  9   N/A
GOOSES REEF MD   0800   37 38  300/ 10/ 12 1020.0
COVE POINT MD    0742   37     330/  6/ 13 1018.7R
SOLOMONS ISLAND  0742   38 40  280/  6/ 10 1017.8R
BISHOPS HEAD MD  0742   38 43  270/ 12/ 14 1018.3R
POTOMAC MD       0800   37 39   80/ 10/ 12 1017.6    1/ 2
CAMBRIDGE MD     0742   36 42              1019.2R
LEWISETTA VA     0742   38 43  300/  7/  9 1018.2R
RAPPAHANNOCK LGT 0742          260/  8/ 10 1019.1R
STINGRAY PT      0800   39 42  300/ 10/ 14 1020.8
YORK RVR RNG VA  0742   40     280/  8/  9 1018.9R
YORKTOWN VA      0742   40 44  260/  5/  7 1018.2R
DOMINION TERM VA 0742   41     300/  9/ 11 1019.0R
KIPTOPEKE VA     0742      44  280/ 11/ 13   N/A
CAPE HENRY VA    0742   40     260/  7/  9   N/A
S CRANEY ISL VA  0742   40     260/  3/  5 1018.7R
CAPE HENRY BUOY  0800      43                N/A     2/ 6
1ST LANDING BUOY 0800   41 42  290/ 12/ 16 1018.7    1/ 3
CAPE CHARLES BUO 0751      42                N/A     2/11
64NM E OF VA BCH 0750   44 50  300/ 14/ 16 1017.8R   5/ 6   3/ 7
DUCK PIER NC     0742   45 44  290/  8/ 10 1018.2R
44100 DUCK FRF   0745      45                N/A     4/ 6
44056 DUCK FRF   0800      44                N/A     3/ 6
OREGON INLET NC  0742   45 47  300/ 12/ 16 1019.0R
HATTERAS NC      0742   50 57  330/ 13/ 17 1018.3R
DIAMOND SHLS NC  0750   60 69  290/ 17/ 23 1018.3R   5/ 5   2/10
CAPE LOOKOUT NC  0800          300/ 14/ 16 1018.7R
$$




USA.gov is the U.S. government's official web portal to all federal, state and local government web resources and services.